Location: Newark
(35.6799°N, 139.7636°E)
Time: 23:36:42
(UTC+00:00)

Vanguard 1 Rocket - Pass Details

Date: 14 December 2019
Orbit: 650 x 4226 km, 34.3° (Epoch: 20 January)

Event Time Altitude Azimuth Distance (km) Brightness Sun altitude
Rises 09:32:42 0° 231° (SW) 8,464 13.3 -24.5°
Reaches altitude 10° 09:38:55 10° 229° (SW) 7,351 12.8 -25.7°
Maximum altitude 10:02:22 60° 156° (SSE) 3,388 10.0 -30.4°
Enters shadow 10:07:54 45° 105° (ESE) 3,335 9.7 -31.5°
